Waukegan, IL

12:53 AM CST on December 17, 2017 (GMT -0600)
Waukegan Regional

Weather History for KUGN - October, 2011

Change the Weather History Date:

Tuesday, October 25, 2011

  Actual Average Record
Temperature  
Mean Temperature 58 °F 48 °F  
Max Temperature 70 °F 57 °F 74 °F (2012)
Min Temperature 48 °F 40 °F 23 °F (2006)
Degree Days  
Heating Degree Days 6 17  
Month to date heating degree days 334  
Since 1 July heating degree days 500  
Cooling Degree Days 0 0  
Month to date cooling degree days 7  
Year to date cooling degree days 564  
Growing Degree Days 8 (Base 50)    
Moisture  
Dew Point 46 °F    
Average Humidity 66    
Maximum Humidity 94    
Minimum Humidity 45    
Precipitation  
Precipitation 0.02 in 0.10 in 0.34 in (2002)
Month to date precipitation 2.37  
Year to date precipitation 30.28  
Sea Level Pressure  
Sea Level Pressure 29.87 in    
Wind  
Wind Speed 10 mph (SSW)    
Max Wind Speed 21 mph    
Max Gust Speed 29 mph    
Visibility 9 miles    
Events Rain    
T = Trace of Precipitation, MM = Missing Value Source: NWS Daily Summary

Daily Weather History Graph

Daily Weather History Graph

Search for Another Location

Airport or City:

Trip Planner

Search our weather history database for the weather conditions in past years. The results will help you decide how hot, cold, wet, or windy it might be!

Date:

Astronomy

Oct. 25, 2011 Rise Set
Actual Time 7:15 AM CDT 5:54 PM CDT
Civil Twilight 6:47 AM CDT 6:23 PM CDT
Nautical Twilight 6:14 AM CDT 6:56 PM CDT
Astronomical Twilight 5:41 AM CDT 7:28 PM CDT
Moon 5:47 AM CDT (10/25) 4:55 PM CDT (10/25)
Length of Visible Light 11h 36m
Length of Day
10h 38m
Waning Crescent, 2% of the Moon is Illuminated
Oct 25
Waning Crescent
Oct 26
New
Nov 2
First Quarter
Nov 10
Full
Nov 18
Last Quarter

Hourly Weather History & Observations

Time (CDT) Temp. Dew Point Humidity Pressure Visibility Wind Dir Wind Speed Gust Speed Precip Events Conditions
12:52 AM 48.0 °F 37.0 °F 66% 30.08 in 10.0 mi SW 6.9 mph - N/A   Clear
1:52 AM 51.1 °F 37.9 °F 61% 30.07 in 10.0 mi SW 8.1 mph - N/A   Mostly Cloudy
2:52 AM 52.0 °F 39.0 °F 61% 30.06 in 10.0 mi SSW 8.1 mph - N/A   Overcast
3:52 AM 53.1 °F 39.0 °F 59% 30.03 in 10.0 mi SSW 12.7 mph - N/A   Overcast
4:52 AM 55.0 °F 39.0 °F 55% 30.01 in 10.0 mi South 12.7 mph - N/A   Overcast
5:52 AM 55.0 °F 37.9 °F 53% 29.99 in 10.0 mi South 8.1 mph - N/A   Overcast
7:52 AM 57.0 °F 36.0 °F 45% 29.95 in 10.0 mi South 12.7 mph - N/A   Mostly Cloudy
8:52 AM 59.0 °F 41.0 °F 51% 29.96 in 10.0 mi SW 9.2 mph 19.6 mph N/A   Overcast
9:52 AM 55.9 °F 46.0 °F 69% 29.96 in 7.0 mi South 9.2 mph - 0.00 in Rain Light Rain
10:52 AM 60.1 °F 46.9 °F 62% 29.90 in 10.0 mi South 15.0 mph - 0.02 in   Partly Cloudy
11:52 AM 60.1 °F 48.0 °F 64% 29.89 in 10.0 mi South 17.3 mph 23.0 mph N/A   Mostly Cloudy
12:52 PM 64.9 °F 52.0 °F 63% 29.83 in 10.0 mi South 16.1 mph 28.8 mph 0.00 in   Partly Cloudy
1:52 PM 69.1 °F 50.0 °F 51% 29.78 in 10.0 mi SSW 20.7 mph 27.6 mph N/A   Clear
2:52 PM 68.0 °F 48.0 °F 49% 29.76 in 10.0 mi SSW 15.0 mph 23.0 mph N/A   Overcast
4:52 PM 68.0 °F 50.0 °F 52% 29.73 in 10.0 mi Calm Calm - N/A   Overcast
5:52 PM 64.0 °F 52.0 °F 65% 29.73 in 10.0 mi Calm Calm - N/A   Overcast
6:52 PM 59.0 °F 51.1 °F 75% 29.75 in 10.0 mi North 8.1 mph - N/A   Overcast
7:52 PM 55.9 °F 50.0 °F 80% 29.75 in 10.0 mi North 11.5 mph - N/A   Overcast
8:52 PM 55.0 °F 50.0 °F 83% 29.76 in 10.0 mi North 8.1 mph - N/A   Overcast
9:52 PM 54.0 °F 51.1 °F 90% 29.76 in 8.0 mi North 8.1 mph - N/A   Overcast
10:04 PM 53.6 °F 51.8 °F 94% 29.77 in 8.0 mi North 11.5 mph - N/A   Overcast
10:52 PM 52.0 °F 48.9 °F 89% 29.79 in 7.0 mi North 8.1 mph 20.7 mph N/A   Overcast
11:52 PM 51.1 °F 48.0 °F 89% 29.77 in 7.0 mi NNE 12.7 mph 20.7 mph 0.00 in Rain Light Rain